N5ZP Weather Reports


time (UTC)temp
F
wind
direction
speed
knots
gust
knots
rain 1hr
in
rain 24hr
in
rain mn
in
humidity
%
barometer
mb
20260506204752 67 28 3.5 7.8 0.00 0.06 0.06 64 1010.9
20260506204250 65 14 2.6 3.5 0.00 0.06 0.06 66 1011.1
20260506203748 65 14 2.6 3.5 0.00 0.06 0.06 66 1011.1
20260506203245 65 10 3.5 5.2 0.00 0.06 0.06 66 1011.1
20260506202742 65 218 1.7 2.6 0.00 0.06 0.06 66 1011.3
20260506202238 65 75 1.7 2.6 0.00 0.06 0.06 66 1010.9
20260506201735 65 51 1.7 2.6 0.00 0.06 0.06 67 1011.4
20260506201232 65 201 0.9 5.2 0.00 0.06 0.06 68 1011.3
20260506200729 65 256 0.9 3.5 0.00 0.06 0.06 65 1011.3
20260506200226 65 82 0.9 2.6 0.00 0.06 0.06 65 1011.4
20260506195722 65 203 1.7 1.7 0.00 0.06 0.06 65 1011.7
20260506195218 64 241 0.0 0.9 0.00 0.06 0.06 68 1011.6
20260506194710 64 280 0.9 2.6 0.00 0.06 0.06 66 1011.7
20260506194207 66 246 0.9 3.5 0.00 0.06 0.06 66 1011.6
20260506193704 66 305 4.3 5.2 0.00 0.06 0.06 66 1011.6
20260506193201 66 264 1.7 3.5 0.00 0.06 0.06 63 1011.8
20260506192657 64 251 0.9 1.7 0.00 0.06 0.06 66 1012.1
20260506192154 64 93 1.7 2.6 0.00 0.06 0.06 68 1012.2
20260506191651 66 320 1.7 3.5 0.00 0.06 0.06 65 1012.1
20260506191147 64 106 0.9 1.7 0.00 0.06 0.06 67 1012.0
20260506190644 64 210 0.9 3.5 0.00 0.06 0.06 65 1012.1
20260506190141 62 232 0.9 0.9 0.00 0.06 0.06 67 1012.1
20260506185638 63 35 2.6 3.5 0.00 0.06 0.06 67 1011.9
20260506185134 62 358 2.6 6.1 0.00 0.06 0.06 67 1011.9
20260506184632 62 328 3.5 7.8 0.00 0.06 0.06 68 1011.5
20260506184129 62 225 1.7 7.0 0.00 0.06 0.06 69 1011.4
20260506183625 61 320 5.2 7.0 0.00 0.06 0.06 70 1011.6
20260506183121 61 314 3.5 7.0 0.00 0.06 0.06 69 1011.7
20260506182619 62 19 5.2 7.0 0.00 0.06 0.06 69 1011.7
20260506182116 61 342 3.5 7.8 0.00 0.06 0.06 69 1011.4
20260506181614 61 11 3.5 7.8 0.00 0.06 0.06 70 1011.7
20260506181111 60 343 3.5 6.1 0.00 0.06 0.06 74 1011.4
20260506180608 59 0 1.7 7.8 0.00 0.06 0.06 75 1011.7
20260506180104 60 44 3.5 6.1 0.00 0.06 0.06 72 1012.0
20260506175600 58 14 3.5 5.2 0.00 0.06 0.06 75 1012.0
20260506175056 58 351 4.3 7.0 0.00 0.06 0.06 74 1012.0
20260506174555 58 11 5.2 8.7 0.00 0.06 0.06 75 1012.1
20260506174051 57 59 5.2 7.0 0.00 0.06 0.06 76 1012.4
20260506173549 57 300 5.2 9.6 0.00 0.06 0.06 75 1012.3
20260506173046 56 1 5.2 7.8 0.00 0.06 0.06 77 1011.9
20260506172543 56 342 3.5 6.1 0.00 0.06 0.06 78 1011.8
20260506172039 56 1 5.2 6.1 0.00 0.06 0.06 81 1011.8
20260506171537 55 2 3.5 7.0 0.00 0.06 0.06 81 1011.7
20260506171035 55 354 2.6 3.5 0.00 0.06 0.06 83 1012.2
20260506170532 55 292 1.7 5.2 0.00 0.06 0.06 83 1011.9
20260506170029 54 308 1.7 3.5 0.00 0.06 0.06 84 1012.0
20260506165527 54 38 2.6 2.6 0.00 0.06 0.06 86 1012.2
20260506165023 54 289 0.9 3.5 0.00 0.06 0.06 85 1012.5
20260506164520 54 334 3.5 5.2 0.00 0.06 0.06 84 1012.3
20260506164018 54 232 0.9 2.6 0.00 0.06 0.06 85 1012.1
20260506163514 54 267 0.9 3.5 0.00 0.06 0.06 86 1012.0
20260506163009 53 275 2.6 5.2 0.00 0.06 0.06 85 1012.0
20260506162506 53 254 0.9 6.1 0.00 0.06 0.06 86 1012.0
20260506162003 53 12 5.2 9.6 0.00 0.06 0.06 86 1011.9
20260506161501 53 298 3.5 6.1 0.00 0.06 0.06 87 1011.7
20260506160958 53 339 5.2 9.6 0.00 0.06 0.06 87 1011.8
20260506160455 53 357 4.3 8.7 0.00 0.06 0.06 87 1011.6
20260506155952 53 8 2.6 7.0 0.00 0.06 0.06 88 1011.7
20260506155450 53 339 2.6 6.1 0.00 0.06 0.06 88 1011.7
20260506153616 52 355 2.6 5.2 0.00 0.06 0.06 91 1012.2
20260506153114 53 318 3.5 6.1 0.00 0.06 0.06 91 1012.3
20260506152611 53 339 3.5 7.0 0.00 0.06 0.06 92 1012.0
20260506152109 52 352 4.3 5.2 0.05 0.06 0.06 92 1011.7
20260506151607 52 15 6.1 7.8 0.05 0.06 0.06 91 1012.0
20260506151103 51 338 4.3 6.1 0.12 0.06 0.06 91 1012.7
20260506150600 51 289 2.6 3.5 0.12 0.05 0.05 91 1013.2
20260506150057 51 280 1.7 3.5 0.12 0.04 0.04 90 1013.6
20260506145554 51 242 0.0 2.6 0.07 0.03 0.03 90 1014.0
20260506145051 51 250 0.9 1.7 0.05 0.02 0.02 90 1013.9
20260506144548 51 226 0.0 0.9 0.05 0.02 0.02 90 1014.0
20260506144045 51 256 0.9 3.5 0.00 0.01 0.01 90 1013.2
20260506143542 51 233 1.7 3.5 0.00 0.01 0.01 89 1012.8
20260506143041 51 226 0.0 1.7 0.00 0.01 0.01 89 1012.5
20260506142538 51 340 5.2 8.7 0.07 0.01 0.01 89 1011.3
20260506142036 51 357 5.2 7.0 0.07 0.01 0.01 89 1011.6
20260506141534 51 250 2.6 6.1 0.07 0.01 0.01 88 1012.4
20260506141032 52 20 3.5 3.5 0.00 0.00 0.00 88 1011.4
20260506140529 52 306 3.5 3.5 0.00 0.00 0.00 87 1012.0
20260506140026 52 326 3.5 6.1 0.00 0.00 0.00 86 1012.5
20260506135523 52 344 2.6 3.5 0.00 0.00 0.00 86 1012.3
20260506135019 52 347 4.3 7.0 0.00 0.00 0.00 85 1012.5
20260506134515 52 264 2.6 6.1 0.00 0.00 0.00 85 1012.4
20260506134012 52 270 3.5 5.2 0.00 0.00 0.00 85 1012.4
20260506133509 52 283 4.3 7.8 0.00 0.00 0.00 85 1012.4
20260506133006 52 287 2.6 6.1 0.00 0.00 0.00 85 1011.6
20260506132503 52 343 1.7 3.5 0.00 0.00 0.00 85 1011.5
20260506132000 52 355 3.5 7.8 0.00 0.00 0.00 85 1011.1
20260506131457 51 259 1.7 6.1 0.00 0.00 0.00 85 1011.2
20260506130954 51 27 2.6 7.8 0.00 0.00 0.00 85 1011.2
20260506130450 51 345 2.6 9.6 0.00 0.00 0.00 85 1011.4
20260506125948 52 22 3.5 7.0 0.00 0.00 0.00 85 1011.6
20260506125446 51 322 4.3 6.1 0.00 0.00 0.00 85 1010.9
20260506124944 51 359 4.3 7.8 0.00 0.00 0.00 84 1011.1
20260506124441 51 12 3.5 8.7 0.00 0.00 0.00 85 1010.7
20260506123939 51 353 5.2 7.0 0.00 0.00 0.00 85 1010.7
20260506123437 51 276 3.5 8.7 0.00 0.00 0.00 85 1010.6
20260506122934 51 13 5.2 7.8 0.00 0.00 0.00 85 1010.5
20260506122431 51 353 4.3 8.7 0.00 0.00 0.00 84 1010.9
20260506121929 52 0 5.2 7.8 0.00 0.00 0.00 84 1010.9
20260506121426 52 341 5.2 6.1 0.00 0.00 0.00 84 1010.6
20260506120923 52 350 5.2 9.6 0.00 0.00 0.00 84 1010.3
20260506120420 52 283 3.5 5.2 0.00 0.00 0.00 84 1010.6
20260506115917 52 13 7.0 11.3 0.00 0.00 0.00 83 1010.4
20260506115415 52 9 4.3 8.7 0.00 0.00 0.00 83 1010.6
20260506114914 53 16 4.3 6.1 0.00 0.00 0.00 82 1010.5
20260506114411 53 298 6.1 8.7 0.00 0.00 0.00 80 1010.5
20260506113910 53 253 4.3 8.7 0.00 0.00 0.00 79 1010.2
20260506113407 53 308 3.5 7.8 0.00 0.00 0.00 78 1010.0
20260506112903 53 314 3.5 7.0 0.00 0.00 0.00 78 1009.8
20260506112401 54 312 3.5 7.8 0.00 0.00 0.00 78 1009.8
20260506111858 54 247 3.5 5.2 0.00 0.00 0.00 78 1009.6
20260506111356 54 319 4.3 11.3 0.00 0.00 0.00 77 1009.5
20260506110853 54 349 3.5 7.8 0.00 0.00 0.00 78 1009.4
20260506110350 54 5 4.3 6.1 0.00 0.00 0.00 78 1009.3
20260506105847 54 359 3.5 5.2 0.00 0.00 0.00 78 1009.1
20260506105343 54 356 5.2 7.0 0.00 0.00 0.00 77 1009.2
20260506104841 55 331 7.8 12.2 0.00 0.00 0.00 77 1009.2
20260506104338 55 328 7.0 12.2 0.00 0.00 0.00 77 1009.2
20260506103836 55 329 7.8 8.7 0.00 0.00 0.00 77 1009.1
20260506103333 55 353 5.2 7.8 0.00 0.00 0.00 77 1008.9
20260506102830 55 290 3.5 7.0 0.00 0.00 0.00 77 1009.0
20260506102328 56 281 3.5 6.1 0.00 0.00 0.00 77 1008.9
20260506101825 56 316 5.2 7.0 0.00 0.00 0.00 77 1008.8
20260506101321 56 358 3.5 6.1 0.00 0.00 0.00 77 1008.9
20260506100820 56 349 3.5 7.0 0.00 0.00 0.00 77 1008.7
20260506100318 56 282 4.3 7.0 0.00 0.00 0.00 77 1008.7
20260506095816 56 9 4.3 6.1 0.00 0.00 0.00 77 1008.4
20260506095312 56 357 3.5 5.2 0.00 0.00 0.00 77 1008.5
20260506094809 56 316 6.1 7.0 0.00 0.00 0.00 77 1008.1
20260506094308 56 6 3.5 5.2 0.00 0.00 0.00 77 1008.1
20260506093805 56 355 4.3 6.1 0.00 0.00 0.00 76 1008.3
20260506093302 56 326 5.2 7.0 0.00 0.00 0.00 76 1008.1
20260506092800 56 328 2.6 6.1 0.00 0.00 0.00 76 1008.3
20260506092258 57 322 2.6 5.2 0.00 0.00 0.00 76 1008.3
20260506091755 57 357 1.7 5.2 0.00 0.00 0.00 77 1008.3
20260506091252 57 258 1.7 5.2 0.00 0.00 0.00 77 1007.9
20260506090750 57 331 3.5 5.2 0.00 0.00 0.00 76 1008.1
20260506090247 57 251 1.7 6.1 0.00 0.00 0.00 76 1007.9
20260506085744 57 6 2.6 7.0 0.00 0.00 0.00 76 1008.1
20260506085240 57 273 1.7 5.2 0.00 0.00 0.00 77 1008.1
20260506084736 57 339 3.5 9.6 0.00 0.00 0.00 76 1008.0
20260506084232 57 3 4.3 5.2 0.00 0.00 0.00 76 1007.7
20260506083730 57 295 1.7 6.1 0.00 0.00 0.00 77 1007.7
20260506083222 57 306 3.5 6.1 0.00 0.00 0.00 77 1007.7
20260506082719 57 346 3.5 6.1 0.00 0.00 0.00 77 1007.5
20260506082215 57 343 6.1 7.0 0.00 0.00 0.00 77 1007.6
20260506081713 57 13 3.5 6.1 0.00 0.00 0.00 76 1007.5
20260506081210 57 338 2.6 7.0 0.00 0.00 0.00 76 1007.7
20260506080707 57 333 4.3 5.2 0.00 0.00 0.00 77 1007.7
20260506080204 57 263 5.2 8.7 0.00 0.00 0.00 77 1007.6
20260506073148 57 261 1.7 5.2 0.00 0.00 0.00 78 1008.0
20260506072644 57 248 4.3 7.0 0.00 0.00 0.00 79 1007.9
20260506072142 57 269 3.5 5.2 0.00 0.00 0.00 80 1007.6
20260506071639 57 330 2.6 5.2 0.00 0.00 0.00 80 1007.6
20260506071137 57 238 1.7 6.1 0.00 0.00 0.00 79 1007.6
20260506070634 57 284 1.7 2.6 0.00 0.00 0.00 79 1007.4
20260506070131 57 318 1.7 6.1 0.00 0.00 0.00 79 1007.2
20260506062108 58 344 3.5 6.1 0.00 0.00 0.00 79 1007.0
20260506061604 58 348 2.6 5.2 0.00 0.00 0.00 80 1007.3
20260506061102 59 103 1.7 3.5 0.00 0.00 0.00 80 1007.4
20260506060600 59 265 1.7 3.5 0.00 0.00 0.00 80 1007.2
20260506051028 60 17 2.6 3.5 0.00 0.00 0.00 78 1007.5
20260506050526 60 343 2.6 9.6 0.00 0.00 0.00 78 1007.5
20260506045017 61 12 4.3 8.7 0.00 0.00 0.00 78 1007.3
20260506044515 61 308 2.6 5.2 0.00 0.00 0.00 78 1007.3
20260506044012 61 338 2.6 9.6 0.00 0.00 0.00 78 1007.5
20260506043508 61 311 5.2 7.8 0.00 0.00 0.00 78 1007.3
20260506043007 61 1 5.2 7.8 0.00 0.00 0.00 78 1007.3
20260506042506 61 318 4.3 6.1 0.00 0.00 0.00 78 1007.2
20260506042003 62 328 5.2 7.0 0.00 0.00 0.00 77 1007.0
20260506041501 62 279 4.3 7.8 0.00 0.00 0.00 77 1007.1
20260506040958 62 276 3.5 7.0 0.00 0.00 0.00 77 1007.3
20260506040456 62 302 4.3 7.0 0.00 0.00 0.00 76 1007.2
20260506035951 62 342 2.6 7.8 0.00 0.00 0.00 76 1007.1
20260506035449 62 357 3.5 7.0 0.00 0.00 0.00 76 1007.2
20260506034945 62 21 4.3 7.0 0.00 0.00 0.00 75 1007.2
20260506034443 63 282 4.3 7.0 0.00 0.00 0.00 75 1007.1
20260506033940 63 348 5.2 9.6 0.00 0.00 0.00 75 1007.0
20260506033437 63 286 4.3 7.8 0.00 0.00 0.00 75 1006.8
20260506032934 63 308 1.7 7.8 0.00 0.00 0.00 75 1006.8
20260506032431 63 300 4.3 7.0 0.00 0.00 0.00 75 1006.6
20260506031927 63 309 3.5 7.0 0.00 0.00 0.00 75 1006.5
20260506031425 64 291 3.5 9.6 0.00 0.00 0.00 75 1006.1
20260506030922 64 255 1.7 3.5 0.00 0.00 0.00 75 1006.1
20260506030420 64 291 5.2 7.8 0.00 0.00 0.00 75 1006.1
20260506025917 64 286 5.2 8.7 0.00 0.00 0.00 75 1005.8
20260506025414 64 339 3.5 6.1 0.00 0.00 0.00 75 1005.7
20260506024911 64 356 5.2 7.0 0.00 0.00 0.00 75 1006.0
20260506024408 65 319 3.5 6.1 0.00 0.00 0.00 75 1005.5
20260506023904 65 309 3.5 7.0 0.00 0.00 0.00 75 1005.8
20260506023401 65 282 4.3 5.2 0.00 0.00 0.00 76 1005.4
20260506022857 65 350 3.5 7.0 0.00 0.00 0.00 75 1005.3
20260506022355 65 296 3.5 6.1 0.00 0.00 0.00 75 1005.3
20260506021853 65 232 1.7 5.2 0.00 0.00 0.00 75 1005.5
20260506021349 65 292 3.5 5.2 0.00 0.00 0.00 75 1005.4
20260506020846 66 279 3.5 3.5 0.00 0.00 0.00 74 1005.4
20260506020344 66 244 2.6 3.5 0.00 0.00 0.00 74 1005.0
20260506015841 66 271 3.5 5.2 0.00 0.00 0.00 73 1005.1
20260506015339 66 291 1.7 3.5 0.00 0.00 0.00 73 1005.0
20260506014835 66 242 3.5 6.1 0.00 0.00 0.00 73 1004.8
20260506014332 66 259 3.5 5.2 0.00 0.00 0.00 72 1004.5
20260506013829 66 293 5.2 7.0 0.00 0.00 0.00 72 1004.5
20260506013326 66 33 3.5 5.2 0.00 0.00 0.00 73 1004.1
20260506012822 67 245 1.7 3.5 0.00 0.00 0.00 73 1004.0
20260506012320 67 261 4.3 6.1 0.00 0.00 0.00 71 1004.0
20260506011817 67 261 4.3 6.1 0.00 0.00 0.00 71 1004.0
20260506011313 68 291 5.2 7.8 0.00 0.00 0.00 71 1003.6
20260506010811 68 291 5.2 7.8 0.00 0.00 0.00 71 1003.6
20260506010309 68 291 5.2 7.8 0.00 0.00 0.00 71 1003.6
20260506005806 68 283 3.5 9.6 0.00 0.00 0.00 70 1003.5
20260506005305 69 290 5.2 6.1 0.00 0.00 0.00 70 1003.2
20260506004758 70 3 4.3 7.0 0.00 0.00 0.00 70 1002.9
20260506004256 70 312 3.5 8.7 0.00 0.00 0.00 70 1002.8
20260506003752 70 331 5.2 8.7 0.00 0.00 0.00 70 1003.1
20260506003249 70 357 3.5 7.0 0.00 0.00 0.00 69 1003.1
20260506002745 71 191 4.3 7.8 0.00 0.00 0.00 69 1003.1
20260506002241 71 310 5.2 9.6 0.00 0.00 0.00 68 1002.6
20260506001736 71 274 2.6 8.7 0.00 0.00 0.00 69 1002.7
20260506001235 71 359 5.2 7.8 0.00 0.00 0.00 68 1002.9
20260506000731 72 7 3.5 6.1 0.00 0.00 0.00 67 1002.8
20260506000229 72 314 5.2 7.8 0.00 0.00 0.00 67 1002.9
20260505235726 72 9 6.1 11.3 0.00 0.00 0.00 66 1003.1
20260505235224 73 358 4.3 6.1 0.00 0.00 0.00 67 1002.9
20260505234720 73 42 4.3 7.8 0.00 0.00 0.00 66 1002.7
20260505234218 73 303 3.5 8.7 0.00 0.00 0.00 65 1002.8
20260505233714 74 316 7.0 8.7 0.00 0.00 0.00 65 1002.7
20260505233212 74 279 3.5 6.1 0.00 0.00 0.00 65 1002.8
20260505232709 75 342 5.2 6.1 0.00 0.00 0.00 65 1002.6
20260505232207 75 3 5.2 9.6 0.00 0.00 0.00 64 1002.7
20260505231703 75 308 4.3 6.1 0.00 0.00 0.00 63 1002.7
20260505231202 75 317 4.3 7.8 0.00 0.00 0.00 63 1002.6
20260505230700 75 252 5.2 7.0 0.00 0.00 0.00 62 1002.5
20260505230156 76 270 1.7 11.3 0.00 0.00 0.00 61 1002.4
20260505225652 76 356 5.2 7.0 0.00 0.00 0.00 61 1002.5
20260505225149 77 356 7.0 13.0 0.00 0.00 0.00 60 1002.2
20260505224645 77 26 7.8 9.6 0.00 0.00 0.00 60 1002.4
20260505224143 78 238 2.6 5.2 0.00 0.00 0.00 61 1002.3
20260505223640 78 311 2.6 7.8 0.00 0.00 0.00 61 1002.2
20260505223136 79 289 2.6 6.1 0.00 0.00 0.00 61 1002.1
20260505222632 79 255 2.6 7.0 0.00 0.00 0.00 60 1001.8
20260505222129 79 271 3.5 7.0 0.00 0.00 0.00 59 1002.3
20260505221626 80 340 3.5 7.8 0.00 0.00 0.00 60 1002.0
20260505221122 80 262 4.3 7.0 0.00 0.00 0.00 59 1001.8
20260505220620 81 242 0.9 7.8 0.00 0.00 0.00 58 1001.8
20260505220117 81 314 1.7 6.1 0.00 0.00 0.00 59 1001.7
20260505215615 82 247 5.2 7.8 0.00 0.00 0.00 61 1001.7
20260505215113 82 287 2.6 6.1 0.00 0.00 0.00 60 1001.8
20260505214611 84 353 4.3 7.8 0.00 0.00 0.00 58 1001.5
20260505214108 84 257 3.5 6.1 0.00 0.00 0.00 54 1001.6
20260505213605 84 261 2.6 3.5 0.00 0.00 0.00 53 1001.5
20260505213101 85 355 5.2 7.8 0.00 0.00 0.00 49 1001.8
20260505212552 86 321 5.2 7.0 0.00 0.00 0.00 49 1001.9
20260505212050 85 241 3.5 8.7 0.00 0.00 0.00 50 1001.6
20260505211547 85 308 4.3 9.6 0.00 0.00 0.00 48 1001.8
20260505211044 85 315 4.3 9.6 0.00 0.00 0.00 46 1001.7
20260505210540 85 285 2.6 7.8 0.00 0.00 0.00 47 1001.6
20260505210037 86 45 7.0 8.7 0.00 0.00 0.00 45 1001.7
20260505205535 85 332 5.2 9.6 0.00 0.00 0.00 45 1002.2
20260505205032 87 9 3.5 11.3 0.00 0.00 0.00 43 1002.0